#timestamp,LO_Frequency,Hit,StdDev 
1508349615.8,286047002.5,Y
1508349635.6,286046998.6,P
1508349655.4,286047001.2,N
1508349675.3,286046998.9,N
1508349695.1,286046998.2,N
1508349715.9,286047000.4,N
1508349735.7,286047002.7,N
1508349755.5,286047001.8,N
1508349775.4,286047001.8,N
1508349795.2,286047000.5,N
1508349815.0,286047001.8,N
1508349815.9,286047001.8,N
1508349835.8,286047002.2,N
1508349855.6,286047003.5,N
1508349875.5,286047002.8,N
1508349895.3,286047001.0,N
1508349915.1,286047000.2,N
1508349935.9,286047000.0,N
1508349955.7,286047002.8,N
1508349975.5,286047002.6,N
1508349995.4,286047000.1,N
1508350015.2,286047000.8,N
1508350035.1,286047001.2,N
1508350036.0,286047001.2,N
1508350055.8,286047001.6,N
1508350075.6,286047000.1,N
1508350095.5,286047001.2,N
1508350115.3,286047000.8,N
1508350135.1,286047000.0,N
1508350155.9,286046999.9,N
1508350175.7,286047000.0,N
1508350195.6,286047002.1,N
1508350215.4,286047002.2,N
1508350235.2,286047001.5,N
1508350255.1,286047002.7,N
1508350256.0,286047002.7,N
1508350275.8,286047001.5,N
1508350295.7,286047004.0,Y
1508350315.5,286047000.2,P
1508350335.3,286047001.2,N
1508350355.2,286046998.4,P
1508350375.0,286046998.4,N
1508350375.9,286046998.4,N
1508350395.7,286046996.9,N
1508350415.6,286046999.5,N
1508350435.4,286046999.4,N
1508350455.3,286047001.1,N
1508350475.1,286047000.5,N
1508350495.8,286047000.1,N
1508350515.7,286047000.2,N
1508350535.5,286046999.1,N
1508350555.3,286046999.0,N
1508350575.2,286046996.6,N
1508350595.0,286046996.8,N
1508350595.9,286046996.8,N
1508350615.8,286046996.7,N
1508350635.6,286046999.3,N
1508350655.4,286046998.7,N
1508350675.3,286046998.1,N
1508350695.1,286047002.5,N
1508350715.9,286047000.6,N
1508350735.7,286046998.1,N
1508350755.5,286046999.3,N
1508350775.4,286046999.6,N
1508350795.2,286046999.2,N
1508350815.0,286047001.2,N
1508350816.0,286047001.2,N
1508350835.8,286047000.1,N
1508350855.6,286047000.6,N
1508350875.5,286046999.9,N
1508350895.3,286046998.8,N
1508350915.1,286046999.4,N
1508350935.9,286047001.0,N
1508350955.7,286047000.9,N
1508350975.6,286046998.6,N
1508350995.4,286046998.6,N
1508351015.3,286046998.2,N
1508351035.1,286047000.1,N
1508351036.0,286047000.1,N
1508351055.8,286047002.3,N
1508351075.7,286047000.3,N
1508351095.5,286047000.7,N
1508351115.3,286046999.9,N
1508351135.2,286047001.1,N
1508351155.0,286046998.1,N
1508351155.9,286046998.1,N
1508351175.8,286047000.6,N
1508351195.6,286047000.5,N
1508351215.4,286047000.3,N
1508351235.3,286046998.5,N
1508351255.1,286046998.7,N
1508351275.8,286047000.6,N
1508351295.7,286046999.2,N
1508351315.5,286046999.0,N
1508351335.4,286046996.6,Y
1508351355.2,286046998.8,P
1508351375.0,286046998.8,N
1508351375.9,286046998.8,N
1508351395.8,286046997.5,Y
1508351415.6,286046999.4,P
1508351435.5,286046998.6,P
1508351455.3,286047000.6,N
1508351475.1,286047002.4,Y
1508351495.9,286046999.9,P
1508351515.7,286047000.7,N
1508351535.5,286046999.4,N
1508351555.4,286046999.1,N
1508351575.2,286047000.7,N
1508351595.1,286047000.2,N
1508351596.0,286047000.2,N
1508351615.8,286047001.9,Y
1508351635.6,286047002.0,P
1508351655.5,286047000.1,N
1508351675.3,286046998.2,N
1508351695.2,286046998.9,N
1508351715.9,286046998.5,N
1508351735.7,286046998.9,N
1508351755.6,286047000.9,N
1508351775.4,286047000.7,N
1508351795.2,286047001.2,N
1508351815.1,286047001.2,N
1508351816.0,286047001.2,N
1508351835.8,286047001.0,N
1508351855.7,286047001.2,N
1508351875.5,286046998.5,N
1508351895.3,286046996.9,N
1508351915.2,286046996.8,N
1508351935.0,286046996.5,N
1508351935.9,286046996.5,N
1508351955.8,286046999.6,N
1508351975.6,286046996.7,N
1508351995.4,286046997.3,N
1508352015.3,286046996.6,N
1508352035.1,286046997.3,N
1508352055.9,286046997.9,N
1508352075.7,286046997.8,N
1508352095.5,286046997.1,N
1508352115.4,286046999.3,N
1508352135.2,286046999.4,N
1508352155.0,286046996.5,N
1508352155.9,286046996.5,N
1508352175.8,286046996.7,N
1508352195.6,286046996.8,N
1508352215.5,286046999.6,N
1508352235.3,286046997.9,N
1508352255.1,286046995.9,N
1508352275.9,286046995.0,N
1508352295.7,286046995.6,N
1508352315.5,286046995.4,N
1508352335.4,286046997.9,N
1508352355.2,286046997.1,N
1508352375.1,286046997.3,N
1508352376.0,286046997.3,N
1508352395.8,286046997.2,N
1508352415.6,286046994.9,Y
1508352435.5,286046998.9,P
1508352455.3,286046998.3,N
1508352475.1,286046999.6,N
1508352495.9,286046997.4,Y
1508352515.7,286046998.8,P
1508352535.6,286046998.2,P
1508352555.4,286046997.3,P
1508352575.2,286046997.0,Y
1508352595.1,286047000.9,P
1508352596.0,286047000.9,N
1508352615.8,286046999.7,N
1508352635.7,286047002.4,N
1508352655.5,286046999.9,N
1508352675.3,286047000.5,N
1508352695.2,286047001.1,N
1508352715.0,286047000.9,N
1508352715.9,286047000.9,N
1508352735.7,286047002.6,N
1508352755.6,286047002.6,N
1508352775.4,286047002.7,N
1508352795.3,286047001.6,N
1508352815.1,286046999.9,N
1508352816.0,286046999.9,N
1508352835.8,286046999.7,N
1508352855.7,286047000.0,N
1508352875.5,286047000.0,N
1508352895.3,286047000.5,N
1508352915.2,286047002.7,N
1508352935.0,286046999.8,N
1508352935.9,286046999.8,N
1508352955.8,286047000.5,N
1508352975.6,286047000.0,N
1508352995.4,286047000.7,N
1508353015.3,286046998.8,N
1508353035.1,286046997.0,N
1508353055.8,286046996.7,N
1508353075.7,286046998.9,N
1508353095.5,286046998.1,N
1508353115.4,286047000.0,N
1508353135.2,286047000.7,N
1508353155.0,286046998.1,N
1508353155.9,286046998.1,N
1508353175.8,286046999.1,N
1508353195.6,286046999.3,N
